Meteo Giornale » Osservazioni meteo Stati Uniti (USA) » Rugby
ore: 18:15 - Osservazioni Meteo Rugby
Lat. 48° 23' N Lon. 100° 1' W Alt. 472 metri s.l.m.
24 °C
Poco Nuvoloso
Temp. 24 Ore
12 °C
27 °C
Ovest/Nord-Ovest
35.2 Km/h
Dew point 13 °C
Umidità 50 %
Visibilità 10 Km
Il sole sorge alle ore 06:56
Il sole tramonta alle ore 20:23
| Data e Ora | Cielo e Fenomeni | T °C | DP °C | Um. % | Pres. hPa | Vis. km | Vento km/h | |
|---|---|---|---|---|---|---|---|---|
| Oggi h: 18:15 | Poco Nuvoloso | 24 | 13 | 50 | 1007 | 10 | O/NO 35.2 | |
| Oggi h: 17:55 | Sereno | 24 | 13 | 50 | 1007 | 14 | O/NO 37 | |
| Oggi h: 17:35 | Poco Nuvoloso | 25 | 12 | 44 | 1006 | 14 | O/NO 42.6 | |
| Oggi h: 17:15 | Poco Nuvoloso | 25 | 12 | 44 | 1006 | 14 | O 33.3 | |
| Oggi h: 16:55 | Poco Nuvoloso | 25 | 11 | 41 | 1006 | 14 | O 35.2 | |
| Oggi h: 16:35 | Nuvoloso | 26 | 11 | 39 | 1006 | 14 | O 44.4 | |
| Oggi h: 16:15 | Molto Nuvoloso | 25 | 10 | 38 | 1006 | 13 | O 46.3 | |
| Oggi h: 15:55 | Nuvoloso | 26 | 10 | 36 | 1006 | 14 | O/SO 55.5 | |
| Oggi h: 15:35 | Sereno | 27 | 10 | 34 | 1005 | 13 | O/SO 51.8 | |
| Oggi h: 15:15 | Poco Nuvoloso | 26 | 10 | 36 | 1005 | 14 | O/SO 55.5 | |
| Oggi h: 14:55 | Poco Nuvoloso | 25 | 10 | 38 | 1005 | 13 | O/SO 53.7 | |
| Oggi h: 14:35 | Sereno | 26 | 10 | 36 | 1005 | 13 | O/SO 50 | |
| Oggi h: 14:15 | Sereno | 25 | 10 | 38 | 1006 | 14 | O/SO 46.3 | |
| Oggi h: 13:55 | Sereno | 25 | 10 | 38 | 1006 | 13 | O/SO 51.8 | |
| Oggi h: 13:35 | Sereno | 24 | 10 | 41 | 1006 | 13 | O/SO 53.7 | |
| Oggi h: 13:15 | Sereno | 24 | 10 | 41 | 1006 | 14 | O/SO 53.7 | |
| Oggi h: 12:55 | Sereno | 23 | 10 | 43 | 1006 | 13 | SO 50 | |
| Oggi h: 12:35 | Sereno | 23 | 10 | 43 | 1007 | 11 | O/SO 46.3 | |
| Oggi h: 12:15 | Sereno | 23 | 10 | 43 | 1007 | 13 | SO 38.8 | |
| Oggi h: 11:55 | Sereno | 22 | 11 | 49 | 1007 | 14 | SO 35.2 | |
| Oggi h: 11:35 | Sereno | 21 | 11 | 52 | 1007 | 14 | SO 44.4 | |
| Oggi h: 11:15 | Sereno | 21 | 11 | 52 | 1008 | 14 | SO 37 | |
| Oggi h: 10:55 | Sereno | 20 | 11 | 56 | 1008 | 14 | SO 38.8 | |
| Oggi h: 10:35 | Sereno | 19 | 12 | 63 | 1008 | 14 | SO 33.3 | |
| Oggi h: 10:15 | Sereno | 18 | 12 | 67 | 1008 | 14 | SO 27.8 | |
| Oggi h: 09:55 | Sereno | 17 | 13 | 77 | 1009 | 14 | SO 25.9 | |
| Oggi h: 09:35 | Sereno | 16 | 14 | 87 | 1009 | 10 | SO 29.6 | |
| Oggi h: 09:15 | Sereno | 15 | 14 | 93 | 1009 | 14 | SO 24 | |
| Oggi h: 08:55 | Sereno | 14 | 14 | 100 | 1008 | 10 | SO 22.2 | |
| Oggi h: 08:35 | Sereno | 14 | 14 | 100 | 1008 | 10 | S/SO 29.6 | |
| Oggi h: 08:15 | Sereno | 13 | 13 | 100 | 1008 | 14 | S/SO 22.2 | |
| Oggi h: 07:55 | Sereno | 12 | 13 | 0 | 1008 | 14 | S/SO 16.7 | |
| Oggi h: 07:35 | Sereno | 12 | 12 | 100 | 1008 | 14 | S/SO 13 | |
| Oggi h: 07:15 | Sereno | 12 | 12 | 100 | 1008 | 10 | S/SO 13 | |
| Oggi h: 06:55 | Sereno | 12 | 12 | 100 | 1008 | 14 | S/SO 14.8 | |
| Oggi h: 06:35 | Sereno | 12 | 12 | 100 | 1008 | 10 | S/SO 16.7 | |
| Oggi h: 06:15 | Sereno | 12 | 12 | 100 | 1008 | 10 | S/SO 14.8 | |
| Oggi h: 05:55 | Sereno | 12 | 12 | 100 | 1008 | 10 | S/SO 14.8 | |
| Oggi h: 05:35 | Sereno | 12 | 13 | 0 | 1008 | 10 | SO 14.8 | |
| Oggi h: 05:15 | Sereno | 12 | 12 | 100 | 1008 | 10 | SO 13 | |
| Oggi h: 04:55 | Sereno | 13 | 13 | 100 | 1008 | 10 | SO 14.8 | |
| Oggi h: 04:35 | Sereno | 13 | 13 | 100 | 1008 | 10 | SO 14.8 | |
| Oggi h: 04:15 | Sereno | 13 | 13 | 100 | 1008 | 10 | SO 13 | |
| Oggi h: 03:55 | Sereno | 13 | 13 | 100 | 1007 | 14 | S 9.3 | |
| Oggi h: 03:35 | Sereno | 13 | 13 | 100 | 1007 | 14 | S 9.3 | |
| Oggi h: 03:15 | Sereno | 13 | 13 | 100 | 1007 | 14 | S/SO 11.1 | |
| Oggi h: 02:55 | Sereno | 13 | 13 | 100 | 1007 | 14 | O/SO 11.1 | |
| Oggi h: 02:35 | Sereno | 14 | 14 | 100 | 1007 | 10 | O/SO 13 | |
| Oggi h: 02:15 | Sereno | 14 | 14 | 100 | 1007 | 10 | O/SO 14.8 | |
| Oggi h: 01:55 | Sereno | 15 | 15 | 100 | 1007 | 14 | O/SO 13 | |
| Oggi h: 01:35 | Sereno | 16 | 16 | 100 | 1007 | 11 | O/SO 13 | |
| Oggi h: 01:15 | Foschia | 16 | 16 | 100 | 1007 | 10 | O/SO 14.8 | |
| Oggi h: 00:55 | Foschia | 16 | 16 | 100 | 1007 | 8 | O/SO 11.1 | |
| Oggi h: 00:35 | Foschia | 16 | 16 | 100 | 1007 | 10 | O 11.1 | |
| Oggi h: 00:15 | Foschia | 16 | 16 | 100 | 1006 | 8 | O 11.1 | |
| Ieri h: 23:55 | Foschia | 16 | 16 | 100 | 1006 | 8 | O 14.8 | |
| Ieri h: 23:35 | Poco Nuvoloso | 17 | 17 | 100 | 1006 | 13 | O/NO 11.1 | |
| Ieri h: 23:15 | Molto Nuvoloso | 18 | 18 | 100 | 1005 | 11 | NO 13 | |
| Ieri h: 22:55 | Molto Nuvoloso | 18 | 18 | 100 | 1005 | 13 | O/NO 14.8 | |
| Ieri h: 22:35 | Pioggia | 18 | 18 | 100 | 1004 | 11 | N/NO 14.8 | |
| Ieri h: 22:15 | Pioggia | 18 | 18 | 100 | 1006 | 6 | NO 11.1 | |
| Ieri h: 21:55 | Pioggia | 18 | 18 | 100 | 1008 | 2 | O 18.5 | |
| Ieri h: 21:35 | Pioggia | 18 | 18 | 100 | 1007 | 5 | O 25.9 | |
| Ieri h: 21:15 | Temporale nelle vicinanze Pioggia | 18 | 18 | 100 | 1007 | 2 | NO 11.1 | |
| Ieri h: 20:55 | Temporale nelle vicinanze Foschia | 21 | 22 | 0 | 1006 | 10 | N 11.1 | |
| Ieri h: 20:35 | Temporale nelle vicinanze | 22 | 21 | 94 | 1006 | 13 | S/SE 7.4 | |
| Ieri h: 20:15 | Temporale nelle vicinanze | 22 | 20 | 88 | 1005 | 14 | SE 13 | |
| Ieri h: 19:55 | Coperto | 23 | 20 | 83 | 1005 | 14 | E/SE 22.2 | |
| Ieri h: 19:35 | Nuvoloso | 23 | 20 | 83 | 1005 | 14 | E/SE 16.7 | |
| Ieri h: 19:15 | Sereno | 23 | 20 | 83 | 1005 | 14 | E/SE 11.1 | |
| Ieri h: 18:55 | Sereno | 23 | 20 | 83 | 1005 | 14 | E/SE 18.5 | |
| Ieri h: 18:35 | Sereno | 24 | 20 | 78 | 1006 | 14 | E/SE 16.7 | |



